Regional Weather Roundup
Issued by NWS Spokane, WA

Home | Current Version | Previous Version | Text Only | Print | Product List | Glossary On
Versions: 1 2 3 4 5 6 7 8 9 10 11 12 13 14 15 16 17 18 19 20 21 22 23 24 25 26 27 28 29 30 31 32 33 34 35 36 37 38 39 40 41 42 43 44 45 46 47 48 49 50
000
NZUS01 KOTX 061610
RWROTX
EASTERN WASHINGTON/NORTHERN IDAHO ROUNDUP
NATIONAL WEATHER SERVICE, SPOKANE WA
800 AM PST FRI MAR 06 2015

Note: "fair" indicated few or no clouds below 12,000 feet with no
significant weather and/or obstructions to visibility.

...NORTHEAST WASHINGTON AND NORTHERN IDAHO PANHANDLE...

CITY           SKY/WX    TMP DP  RH WIND       PRES   REMARKS
SPOKANE INTL   PTSUNNY   36  24  62 E5        30.37R
SPOKANE DOWNTO MOSUNNY   34  24  67 CALM      30.40R
COEUR D ALENE  SUNNY     36  25  64 SE7       30.37S
DEER PARK      MOSUNNY   34  25  69 CALM      30.39R
SANDPOINT      SUNNY     30  27  86 CALM      30.39R
BONNERS FERRY  FAIR      32  23  69 CALM      30.37R

...SOUTHEAST WASHINGTON AND SOUTHERN IDAHO PANHANDLE...

CITY           SKY/WX    TMP DP  RH WIND       PRES   REMARKS
WALLA WALLA    MOSUNNY   50  29  44 CALM      30.37R
PULLMAN/MOSCOW SUNNY     41  24  51 E5        30.41R
LEWISTON       SUNNY     36  26  67 NE5       30.44R
LOWELL           N/A     28  24  85 CALM      30.54R

...COLUMBIA BASIN...

CITY           SKY/WX    TMP DP  RH WIND       PRES   REMARKS
EPHRATA        CLOUDY    39  30  70 N3        30.38R
MOSES LAKE     CLOUDY    35  28  75 NE5       30.39R
TRI CITIES     PTSUNNY   35  29  78 NW3       30.42R
HERMISTON      PTSUNNY   40  30  67 CALM      30.39R
PENDLETON      MOSUNNY   44  25  47 SE3       30.37R

...EAST SLOPES CASCADES...

CITY           SKY/WX    TMP DP  RH WIND       PRES   REMARKS
THE DALLES     PTSUNNY   38  32  79 CALM      30.42R
YAKIMA         PTSUNNY   36  30  79 CALM      30.39R
WENATCHEE      CLOUDY    41  31  67 CALM      30.38R
OMAK           CLOUDY    38  28  67 CALM      30.38S

...SOUTHERN BRITISH COLUMBIA...

CITY           SKY/WX    TMP DP  RH WIND       PRES   REMARKS
PENTICTON      CLOUDY    43  27  52 SE9       30.36R
CRANBROOK      PTSUNNY   21  16  79 CALM      30.31R

...WESTERN MONTANA...

CITY           SKY/WX    TMP DP  RH WIND       PRES   REMARKS
MISSOULA       SUNNY     31  21  66 CALM      30.40R

...NEIGHBORING CITIES...

CITY           SKY/WX    TMP DP  RH WIND       PRES   REMARKS
SEATTLE        PTSUNNY   41  36  82 CALM      30.41R
CALGARY        MOSUNNY   46  19  34 W5        30.02R



USA.gov is the U.S. government's official web portal to all federal, state and local government web resources and services.